2022-096K (53379 NORAD) Tracking and Keplerian Element Data

This shows tracking and keplerian element data for the satellite.

Feedback or suggestion? Click here.




ElementValue
Catalog53379
Name2022-096K
Epoch Orbit1585
Epoch Day325.28722396
Epoch Year2022
RAAN226.0973
Inclination97.4272
Eccentricity0.0005842
Argument of Perigee83.2111
Mean Anonmoly69.7618
Mean Motion15.26654795
Decay Rate7.2E-05
L11 53379U 22096K 22325.28722396 .00007200 00000+0 27721-3 0 9999
L22 53379 97.4272 226.0973 0005842 83.2111 69.7618 15.26654795 15850



Live tracking and technical data element details for 2022-096K (NORAD 53379). 2022-096K can be tracked NOW for your location showing map with azimuth and elevation plus other details from your city location.







IsCatalogInMostPopularTable: catalog: 53379, numindb: 5
Update: records affected: 1



GetName: 53379 2022-096K

Hit Count: updated at: Tue, 29 Nov 2022 01:08:52 GMT